Temperature
20 19 20 19 19 19 19 19 19 19 19 19 19 19 19 19 19 19 19 18 18 18 18 18 18 18 18 18 18 18 18 18 18 17 17 17 17 17 17 17 17 16 17
20 19 20 19 19 19 19 19 19 19 19 19 19 19 19 19 19 19 19 18 18 18 18 18 18 18 18 18 18 18 17 17 17 17 17 17 17 17 17 17 16 16 17
20 19 20 19 19 19 19 19 19 19 19 19 19 19 19 19 19 19 18 18 18 18 18 18 18 18 18 18 18 17 17 17 17 17 17 16 17 17 17 17 17 17 17
20 19 19 19 19 19 19 19 19 19 19 19 19 19 19 19 18 18 18 18 18 18 18 18 18 18 18 18 17 17 17 17 17 17 17 16 16 17 17 17 17 17 17
20 19 19 20 19 19 19 19 19 19 19 19 19 19 19 18 18 18 18 18 18 18 18 18 18 18 18 18 17 17 17 18 17 17 16 16 16 17 17 17 17 17 16
19 19 19 20 19 19 19 19 19 19 19 19 19 19 18 18 18 18 18 18 18 18 18 18 18 18 18 17 17 17 17 17 17 17 16 16 16 17 17 17 17 17 16
20 19 19 20 20 19 19 19 19 19 19 19 19 18 18 18 18 18 18 18 18 18 18 18 18 18 18 17 17 17 17 17 17 17 16 16 17 17 17 17 17 17 16
20 19 19 19 19 19 19 19 19 19 19 19 18 18 18 18 18 18 18 18 18 18 18 18 18 18 17 17 17 17 17 17 17 17 16 16 17 17 17 17 17 17 17
20 19 18 19 19 19 19 19 19 19 19 18 18 18 18 18 18 18 18 18 18 18 18 18 18 17 17 17 17 17 17 17 17 17 16 16 17 17 17 17 17 17 16
20 19 19 18 18 18 19 19 19 19 18 18 18 18 18 18 18 18 17 18 18 18 18 17 17 17 17 17 17 17 17 17 17 17 16 16 17 17 17 17 16 16 16
19 19 19 19 18 18 18 18 18 18 18 18 18 18 18 17 17 17 17 18 18 18 18 17 17 17 17 17 17 17 17 17 17 17 16 17 17 17 17 17 16 16 16
19 19 19 19 18 18 18 18 18 18 18 18 17 17 17 17 17 17 17 18 18 18 18 17 17 17 17 17 17 17 17 17 17 17 16 17 17 17 17 16 16 16 16
19 19 19 18 18 18 18 18 18 18 18 17 17 17 17 17 17 17 17 17 17 17 17 17 17 17 17 17 17 17 17 18 18 17 17 17 17 17 16 16 16 16 16
19 19 19 18 18 18 18 18 18 18 18 18 17 17 17 17 17 17 17 17 17 17 17 17 17 17 17 17 17 17 17 18 17 17 17 17 17 17 16 16 16 16 16
19 19 19 18 18 18 18 18 18 18 18 18 17 17 17 17 17 17 17 17 17 17 17 17 17 17 17 17 17 17 17 17 17 17 16 17 17 17 16 16 16 16 16
19 19 19 19 19 19 18 18 18 18 18 18 17 17 17 17 17 17 17 17 17 17 17 17 17 17 17 17 17 17 17 17 16 16 16 17 17 17 16 16 16 16 16
19 19 19 19 19 19 18 18 18 18 18 17 17 17 17 17 17 17 17 17 17 17 17 17 17 17 17 17 17 17 17 16 16 16 16 16 16 16 16 16 16 16 16
19 19 19 19 19 19 19 18 18 18 18 17 17 17 17 17 17 17 17 17 17 17 17 17 17 17 17 17 17 17 17 17 16 16 16 16 16 16 16 16 16 16 16
19 19 19 19 19 19 18 18 18 18 17 17 17 17 17 17 17 17 17 17 17 17 17 17 17 17 17 17 17 17 17 17 16 16 16 16 16 16 16 16 16 16 16
19 19 19 19 19 19 18 18 18 18 17 17 17 17 17 17 17 17 17 17 17 17 17 17 16 16 17 17 17 17 17 17 17 17 16 16 16 16 16 16 16 16 16
19 19 19 19 19 18 18 18 18 17 17 17 17 17 17 17 17 17 17 17 17 17 17 17 17 16 17 17 17 17 17 17 17 17 17 17 16 16 16 16 16 16 16
19 19 19 19 19 18 18 18 18 17 17 17 17 17 17 17 17 17 17 17 17 17 17 17 17 17 17 17 17 18 18 18 17 17 17 17 17 16 16 16 16 16 16
19 19 19 18 18 18 18 18 17 17 17 17 17 17 17 17 17 17 17 17 17 17 17 17 17 17 17 17 17 18 18 19 19 18 17 17 17 17 17 17 16 16 16
19 19 19 18 18 18 18 17 17 17 17 17 17 17 17 17 17 17 17 17 17 17 17 17 17 17 17 17 17 17 17 18 18 19 18 17 17 17 17 17 17 16 16
19 19 18 18 18 18 18 18 17 17 17 17 17 17 17 17 17 17 17 17 17 17 17 17 16 17 17 17 17 17 17 17 17 18 19 18 18 17 17 17 17 17 16
19 18 18 18 18 18 18 18 17 17 17 17 17 17 17 17 17 17 17 17 17 17 17 17 16 17 17 17 17 17 17 17 18 18 18 18 18 18 17 17 17 17 17
Wind_Speed
14 17 17 15 14 15 16 17 17 18 18 17 17 16 15 15 14 14 14 14 14 14 15 16 16 17 17 17 17 17 17 17 17 18 18 18 18 17 16 16 17 18 18
17 19 18 16 16 16 17 17 17 17 17 17 16 16 15 14 14 14 14 14 14 15 15 16 16 16 16 17 16 16 17 17 17 17 17 18 17 16 14 14 16 17 18
19 20 19 17 16 16 17 17 17 17 17 16 16 15 15 14 14 13 13 14 14 15 15 16 16 16 16 16 16 16 16 16 15 14 13 16 16 15 16 18 18 18 18
19 20 18 18 17 16 16 17 17 17 16 16 15 15 14 14 13 13 13 14 14 14 15 16 16 16 15 15 15 15 15 15 12 9 11 14 16 16 16 17 17 17 17
18 18 20 19 17 17 16 16 16 16 16 15 15 14 14 13 13 13 13 13 14 14 14 15 15 15 15 15 15 15 14 12 8 7 13 14 15 15 15 16 16 16 16
17 18 20 19 18 17 16 16 16 15 15 15 14 14 13 13 13 13 13 13 14 14 14 14 14 14 13 13 13 13 12 10 8 12 12 13 15 14 14 15 15 15 15
17 18 20 19 18 17 16 16 15 15 14 14 13 13 13 13 13 13 13 13 14 14 14 13 13 13 12 12 12 12 10 5 8 11 11 13 14 14 14 14 14 14 15
17 17 19 18 17 17 16 15 15 14 13 13 13 13 13 13 13 13 13 13 13 13 13 12 12 11 11 11 11 11 9 5 10 10 11 13 13 13 13 13 13 13 14
16 16 18 18 17 16 16 15 15 14 13 13 13 13 13 13 13 13 12 13 13 12 12 11 11 10 10 10 11 10 7 1 7 9 11 12 13 12 12 12 12 12 13
15 15 15 16 16 16 16 15 14 14 13 13 13 13 13 13 12 12 13 12 12 11 11 10 10 9 9 10 10 10 8 6 7 9 9 12 12 11 11 11 11 11 11
14 13 14 15 15 15 15 16 15 14 13 13 13 13 12 12 12 11 12 12 11 10 10 9 9 8 9 11 10 9 9 5 7 7 9 14 11 10 10 10 10 10 11
16 15 13 13 13 13 13 14 13 13 13 11 11 12 9 8 7 9 13 10 10 10 10 8 8 9 8 9 10 10 5 5 6 7 11 12 10 10 10 9 9 10 10
16 14 14 13 13 12 10 11 10 9 11 10 10 10 8 8 8 8 9 10 9 10 8 9 8 5 4 5 5 5 4 5 5 7 12 11 9 9 9 9 9 9 9
16 15 14 14 12 11 10 9 9 9 9 9 10 10 9 6 6 6 6 7 7 6 5 6 4 4 4 5 4 4 5 4 4 6 11 10 8 8 8 8 8 8 9
15 15 14 13 13 11 9 8 9 8 9 9 10 9 9 7 6 6 5 4 5 5 6 4 4 4 4 5 4 4 4 4 5 5 9 10 8 8 7 8 7 7 8
15 14 13 13 13 12 10 8 7 9 8 9 10 10 9 8 7 6 6 5 5 5 4 4 5 5 4 4 4 4 4 5 5 4 7 10 9 8 7 7 7 7 7
14 14 13 13 13 13 12 11 9 9 10 9 9 10 9 8 8 7 6 6 5 5 5 4 4 4 4 4 4 4 4 4 5 4 4 6 9 10 8 8 8 7 8
13 13 13 13 14 13 12 10 8 8 9 8 9 9 10 9 9 7 6 6 6 6 6 4 4 4 4 4 4 3 3 4 5 5 5 5 5 7 10 9 8 8 8
13 13 13 13 13 13 12 9 9 8 8 8 9 9 10 10 10 8 6 5 7 6 5 5 5 4 5 4 4 4 4 4 4 5 4 5 5 5 6 10 10 9 9
13 13 13 13 13 12 10 8 8 9 8 9 9 9 10 10 11 9 7 7 8 6 5 4 4 4 4 4 4 4 3 3 4 4 5 5 6 6 6 6 8 10 11
13 13 14 14 13 11 10 10 10 10 9 9 9 10 11 11 11 9 7 7 7 7 6 7 5 7 6 4 4 4 4 5 4 4 5 4 6 6 6 6 7 6 9
14 14 13 13 13 13 11 9 8 9 9 9 8 9 10 11 11 11 9 8 8 6 7 7 6 5 5 5 4 4 4 5 6 6 6 6 6 6 7 8 7 7 7
13 13 12 12 13 13 12 9 8 8 7 8 9 9 10 12 12 11 10 9 8 8 8 8 8 7 6 6 5 4 3 3 4 5 6 6 6 5 6 7 8 8 9
13 12 12 12 13 13 12 12 13 11 11 11 10 9 10 12 12 12 11 10 9 9 7 9 9 7 7 6 5 5 4 3 3 3 6 6 6 7 6 6 7 9 9
12 11 11 11 12 12 13 13 12 11 10 8 9 9 9 10 11 12 11 10 9 8 8 8 7 8 7 7 6 5 5 4 6 5 3 4 5 6 6 7 6 7 8
10 10 10 11 12 12 12 13 13 13 11 11 11 11 9 8 9 12 11 10 10 9 9 9 8 9 8 7 7 6 5 5 5 5 4 5 4 4 5 5 6 6 7
Wind_Direction
148 140 138 139 136 133 132 132 132 132 131 128 127 124 121 117 114 110 107 104 102 102 103 103 105 105 105 104 104 103 102 102 101 100 99 98 98 98 101 108 109 101 103
143 138 140 139 136 134 132 132 131 132 132 130 128 125 122 119 116 114 110 106 104 103 103 103 104 104 104 104 105 105 105 105 104 105 107 103 98 96 94 91 91 102 105
141 139 144 140 136 134 131 131 131 131 131 130 129 127 124 121 119 117 113 109 107 106 105 105 105 104 104 104 105 107 106 106 108 117 125 109 102 97 97 96 100 104 104
141 143 146 140 138 136 133 132 132 132 131 131 130 128 126 124 122 119 115 112 111 109 108 108 107 107 106 106 107 106 107 108 117 145 113 105 105 100 101 102 104 105 106
141 141 140 145 142 140 137 135 135 134 134 133 131 130 129 127 124 121 117 116 114 113 112 111 111 110 109 109 109 109 111 115 134 118 98 100 101 104 103 104 106 106 108
144 145 143 149 146 143 140 138 137 137 135 134 133 131 129 128 125 120 118 117 116 115 113 113 113 112 111 112 112 113 117 136 156 102 105 106 106 108 107 106 106 107 108
149 145 145 151 148 146 145 142 139 138 136 135 134 132 129 126 124 121 119 117 115 115 114 114 114 114 115 116 115 116 123 154 108 104 104 101 104 110 109 107 108 108 109
150 147 144 151 150 149 147 145 142 141 138 136 133 132 128 125 122 121 121 119 116 114 115 115 113 113 116 119 119 122 136 179 116 109 105 104 109 113 111 111 111 111 111
153 147 150 156 155 153 151 149 146 144 140 137 135 132 130 127 124 122 122 121 119 117 118 117 116 115 117 120 123 126 130 244 117 115 113 111 117 117 116 116 116 114 113
157 155 156 160 158 159 156 153 151 148 145 142 139 136 133 131 130 131 133 125 123 121 119 118 116 116 121 123 128 133 148 199 122 121 115 116 124 123 121 120 120 120 119
164 162 164 162 162 163 159 154 157 154 152 151 148 145 154 151 143 151 122 126 127 124 122 121 121 125 135 136 137 149 178 162 122 109 104 116 132 130 128 126 127 128 125
171 171 168 167 165 167 160 158 166 164 160 168 154 158 160 142 145 131 123 132 132 130 131 128 135 160 185 147 148 180 171 141 135 124 114 128 139 139 138 137 135 133 131
173 174 172 171 170 173 163 166 167 162 161 166 159 161 152 152 149 143 147 148 149 158 155 148 174 169 148 122 153 166 133 142 136 123 125 141 148 149 148 145 146 144 142
177 178 177 173 175 177 173 168 168 167 167 168 162 171 161 162 156 151 157 153 160 160 152 165 159 141 130 136 150 145 149 154 134 115 128 146 153 156 156 154 154 154 155
180 181 179 178 178 177 176 180 175 174 172 165 166 174 172 167 165 158 151 157 168 157 164 169 158 146 151 152 153 150 149 137 133 137 135 151 160 164 165 164 165 164 166
183 182 179 183 183 182 181 184 177 178 176 172 174 171 181 175 167 166 165 168 171 170 166 170 160 163 168 150 153 145 163 150 137 153 143 155 169 175 177 177 179 181 182
184 182 181 186 189 189 187 186 183 182 179 180 174 172 182 185 173 180 173 179 174 168 165 183 174 178 176 170 158 157 160 159 149 159 156 161 167 175 182 186 190 195 197
185 184 185 189 191 191 189 188 184 186 183 180 176 177 186 188 184 191 187 184 172 181 183 178 196 188 180 178 163 168 151 155 162 173 177 177 177 172 176 186 198 206 208
186 186 188 192 191 190 187 185 188 187 188 185 184 183 185 191 190 197 194 176 184 189 190 197 180 198 186 186 175 173 181 180 176 186 186 188 183 188 178 175 192 207 212
188 188 189 189 188 187 186 186 190 193 194 194 191 189 188 193 195 199 195 186 198 195 190 195 180 198 198 196 203 167 190 194 200 187 204 196 194 198 200 187 194 200 205
188 189 190 190 187 185 187 190 190 192 194 194 194 191 192 197 196 202 205 187 206 201 197 196 196 189 197 191 193 189 191 205 204 199 212 212 202 203 203 202 216 212 195
191 191 190 193 191 191 191 194 197 195 196 196 196 190 198 201 202 202 208 205 205 201 200 202 202 208 197 193 211 210 207 197 210 209 206 213 216 205 205 209 212 218 234
192 191 192 195 198 197 191 190 189 190 195 195 196 196 202 204 206 213 206 213 209 210 202 204 203 211 209 205 221 235 241 225 192 188 208 216 219 223 223 214 213 212 222
192 189 191 193 198 197 193 194 193 194 197 198 195 195 197 204 207 209 210 212 214 216 205 210 209 215 219 215 210 238 268 316 268 202 197 197 208 221 233 233 222 213 219
189 189 194 194 197 196 195 196 197 201 202 196 194 194 199 203 209 210 209 211 213 216 211 218 210 220 218 226 222 216 222 230 247 260 235 209 203 208 213 224 231 230 222
186 189 193 198 199 198 199 200 202 204 202 197 196 195 198 202 208 210 209 209 212 214 211 215 216 216 224 228 234 231 225 229 233 240 243 236 227 214 208 223 230 227 225
Height
1523 1525 1525 1528 1530 1533 1535 1537 1538 1540 1541 1542 1544 1545 1546 1547 1548 1549 1550 1551 1552 1552 1553 1554 1554 1555 1556 1557 1557 1558 1559 1560 1560 1561 1562 1562 1563 1564 1565 1565 1566 1567 1567
1523 1525 1526 1529 1532 1534 1536 1538 1540 1541 1543 1544 1546 1547 1548 1549 1550 1551 1552 1553 1554 1555 1555 1556 1557 1558 1558 1559 1560 1561 1561 1562 1563 1564 1565 1565 1566 1567 1568 1568 1569 1569 1570
1524 1525 1527 1531 1533 1536 1538 1540 1542 1543 1545 1546 1547 1549 1550 1551 1552 1553 1554 1555 1556 1557 1558 1558 1559 1560 1561 1562 1563 1563 1564 1565 1566 1567 1568 1570 1569 1569 1570 1571 1571 1572 1573
1525 1527 1529 1532 1535 1537 1539 1541 1543 1545 1546 1548 1549 1550 1552 1553 1554 1555 1556 1557 1558 1559 1560 1561 1561 1562 1563 1564 1565 1566 1567 1567 1569 1570 1573 1573 1572 1572 1573 1573 1574 1574 1575
1527 1529 1530 1533 1536 1539 1541 1543 1545 1546 1548 1549 1551 1552 1553 1555 1556 1557 1558 1559 1560 1561 1562 1563 1564 1565 1566 1567 1567 1568 1569 1570 1571 1574 1575 1575 1574 1574 1575 1576 1576 1577 1578
1528 1531 1532 1535 1537 1540 1542 1544 1546 1548 1550 1551 1552 1554 1555 1557 1558 1559 1560 1561 1562 1563 1564 1565 1566 1567 1568 1569 1570 1570 1571 1572 1575 1576 1577 1577 1577 1577 1578 1578 1579 1580 1580
1530 1533 1533 1536 1539 1541 1544 1546 1548 1549 1551 1553 1554 1556 1557 1558 1560 1561 1562 1563 1564 1565 1566 1567 1569 1570 1571 1571 1572 1573 1574 1574 1579 1579 1579 1579 1578 1579 1580 1581 1581 1582 1583
1532 1534 1535 1537 1540 1543 1545 1547 1549 1551 1553 1554 1556 1557 1558 1560 1561 1562 1563 1565 1566 1567 1568 1569 1571 1572 1573 1574 1574 1575 1576 1577 1580 1581 1581 1581 1580 1581 1582 1583 1583 1584 1585
1534 1536 1536 1539 1541 1543 1546 1548 1550 1552 1554 1556 1557 1559 1560 1561 1563 1564 1565 1566 1568 1569 1570 1571 1572 1574 1575 1575 1576 1577 1578 1579 1583 1583 1583 1582 1582 1583 1584 1585 1586 1586 1587
1534 1537 1538 1541 1543 1544 1547 1549 1551 1553 1555 1557 1558 1560 1561 1563 1564 1565 1567 1568 1569 1570 1572 1573 1574 1576 1576 1577 1578 1579 1580 1581 1585 1585 1585 1584 1584 1585 1586 1587 1587 1588 1589
1534 1537 1539 1542 1544 1546 1548 1549 1552 1554 1556 1558 1559 1561 1563 1565 1567 1568 1568 1569 1571 1572 1573 1575 1576 1577 1578 1579 1580 1580 1582 1585 1586 1587 1586 1585 1585 1586 1587 1588 1589 1590 1590
1532 1536 1539 1542 1544 1547 1549 1550 1553 1555 1556 1559 1561 1562 1565 1566 1568 1570 1569 1570 1572 1573 1575 1576 1577 1579 1580 1582 1582 1582 1585 1586 1587 1587 1586 1586 1587 1588 1588 1589 1590 1591 1592
1531 1535 1538 1540 1543 1546 1549 1551 1553 1556 1557 1559 1561 1562 1564 1566 1569 1570 1571 1572 1573 1575 1577 1577 1579 1582 1583 1583 1584 1585 1586 1587 1588 1589 1587 1587 1588 1589 1589 1590 1591 1592 1593
1530 1533 1536 1539 1541 1545 1548 1550 1553 1555 1556 1559 1560 1563 1565 1567 1569 1571 1572 1573 1575 1576 1577 1579 1580 1582 1583 1583 1585 1586 1586 1587 1588 1589 1587 1587 1588 1589 1590 1591 1592 1593 1594
1529 1531 1534 1537 1539 1542 1545 1549 1551 1554 1556 1558 1560 1562 1564 1567 1568 1570 1572 1573 1576 1577 1578 1579 1580 1581 1583 1584 1585 1586 1587 1587 1588 1589 1588 1588 1589 1589 1590 1591 1592 1593 1594
1527 1529 1532 1534 1537 1540 1543 1546 1549 1552 1554 1558 1560 1561 1564 1567 1568 1570 1571 1573 1575 1577 1578 1579 1581 1581 1583 1584 1585 1585 1586 1587 1587 1588 1589 1588 1589 1589 1590 1591 1592 1593 1594
1525 1527 1529 1532 1535 1538 1541 1544 1548 1551 1553 1556 1558 1560 1562 1565 1567 1569 1571 1572 1574 1576 1577 1578 1580 1582 1583 1584 1585 1585 1586 1587 1587 1588 1589 1589 1589 1589 1590 1591 1592 1593 1593
1523 1525 1527 1530 1532 1535 1538 1542 1546 1549 1552 1554 1557 1559 1561 1564 1565 1568 1570 1572 1573 1575 1577 1578 1580 1582 1583 1584 1584 1585 1586 1586 1587 1587 1589 1589 1590 1590 1590 1591 1591 1592 1593
1519 1522 1524 1527 1529 1533 1536 1539 1543 1546 1549 1552 1555 1558 1559 1562 1564 1567 1569 1571 1572 1575 1576 1578 1579 1581 1582 1583 1584 1584 1586 1586 1587 1588 1588 1589 1589 1590 1590 1590 1590 1591 1592
1517 1519 1522 1524 1527 1530 1533 1536 1540 1543 1547 1550 1553 1555 1557 1560 1563 1566 1568 1569 1572 1574 1575 1576 1578 1579 1581 1582 1584 1584 1585 1586 1587 1587 1588 1588 1589 1589 1590 1590 1590 1590 1590
1514 1516 1518 1521 1523 1527 1530 1533 1535 1539 1544 1547 1550 1553 1555 1558 1561 1563 1567 1568 1570 1572 1574 1575 1577 1578 1580 1581 1583 1584 1584 1585 1585 1586 1587 1587 1588 1588 1589 1589 1590 1590 1590
1510 1513 1516 1518 1521 1523 1526 1530 1534 1538 1541 1544 1547 1550 1553 1556 1559 1562 1564 1566 1568 1570 1571 1573 1575 1577 1579 1580 1581 1582 1583 1584 1583 1584 1585 1585 1586 1587 1587 1588 1588 1588 1589
1508 1510 1513 1515 1518 1521 1523 1527 1531 1534 1537 1541 1544 1547 1550 1553 1556 1559 1562 1564 1566 1568 1570 1571 1573 1575 1577 1579 1580 1581 1581 1581 1582 1583 1583 1584 1584 1585 1586 1586 1586 1586 1587
1504 1507 1510 1512 1515 1518 1521 1523 1526 1530 1533 1537 1541 1544 1548 1551 1554 1556 1559 1561 1563 1566 1568 1569 1572 1573 1575 1576 1578 1578 1580 1580 1580 1580 1581 1581 1582 1582 1583 1584 1585 1585 1585
1502 1505 1507 1510 1512 1515 1518 1520 1523 1527 1531 1535 1538 1541 1544 1548 1550 1553 1556 1558 1561 1563 1565 1567 1569 1571 1572 1574 1576 1577 1578 1578 1579 1579 1579 1580 1580 1581 1581 1581 1582 1583 1583
1501 1503 1505 1507 1510 1512 1515 1518 1520 1524 1527 1531 1534 1538 1541 1544 1547 1550 1552 1555 1558 1560 1562 1564 1566 1568 1570 1571 1573 1574 1576 1576 1577 1578 1578 1578 1578 1579 1579 1579 1580 1580 1581